AirNav   Everest Fuels
 
 1107 users online  

19LS Riverside Medical Center Heliport
Franklinton, Louisiana, USA

GOING TO FRANKLINTON?


FAA INFORMATION EFFECTIVE 10 SEPTEMBER 2020

Location

FAA Identifier: 19LS
Lat/Long: 30-50-03.5600N 090-09-12.8900W
30-50.059333N 090-09.214833W
30.8343222,-90.1535806
(estimated)
Elevation: 146 ft. / 45 m (estimated)
Time zone: UTC -5 (UTC -6 during Standard Time)
Zip code: 70438

Heliport Operations

Heliport use: Private use. Permission required prior to landing
Activation date: 07/2009
Control tower: no
ARTCC: HOUSTON CENTER
FSS: DE RIDDER FLIGHT SERVICE STATION
Attendance: UNATNDD
Wind indicator: lighted
Segmented circle: no

Heliport Communications

WX AWOS-3PT at BXA (15 nm E): 118.025 (985-732-6224)

Nearby radio navigation aids

VOR radial/distance  VOR name  Freq  Var
HMUr036/(23.3)HAMMOND VOR109.6000E
PCUr302/27.3PICAYUNE VOR/DME114.1505E
MCBr166/28.7MC COMB VORTAC116.7003E

 
NDB name  Hdg/Dist  Freq  Var  ID
BOGALUSA259/15.335300WGVB --. ...- -...

Heliport Services

Runway Information

Helipad H1

Dimensions: 40 x 40 ft. / 12 x 12 m
Surface: concrete
Runway edge lights: PERI
Latitude: 30-50.059333N
Longitude: 090-09.214833W
Elevation: 146.0 ft.
Traffic pattern: leftleft

Heliport Ownership and Management from official FAA records

Ownership: Privately-owned
Owner: RIVERSIDE MEDICAL CENTER
1900 S MAIN ST
FRANKLINTON, LA 70438
Phone 985-839-4431
Manager: SHAD JENKINS
1900 S MAIN ST
FRANKLINTON, LA 70438
Phone 985-795-4259

Additional Remarks

A52-H1 42 INCH POLE 6 FT W OF PAD; 25 FT POLE 80 FT W OF PAD.
OWNER DESIRES THIS ARPT NOT BE CHARTED.
FOR CD CTC HOUSTON ARTCC AT 281-230-5622.

Instrument Procedures

There are no published instrument procedures at 19LS.

Some nearby airports with instrument procedures:

KBXA - George R Carr Memorial Air Field (15 nm E)
KHDC - Hammond Northshore Regional Airport (23 nm SW)
KMCB - Mc Comb (Pike County) Airport/John E Lewis Field (26 nm NW)
0R0 - Columbia-Marion County Airport (33 nm NE)
KMJD - Picayune Municipal Airport (33 nm SE)
 
Loc | Ops | Rwys | IFR | FBO | Links
Com | Nav | Svcs | Stats | Notes

Continental Services
AirBoss

 
Aerial photo
No photo
 
Sectional chart

 
Airport distance calculator
Flying to Riverside Medical Center Heliport? Find the distance to fly.

From to 19LS

Sunrise and sunset
Times for 19-Sep-2020
 Local
(UTC-5)
 Zulu
(UTC)
Morning civil twilight06:2511:25
Sunrise06:4911:49
Sunset18:5923:59
Evening civil twilight19:2300:23

Current date and time
Zulu (UTC)  19-Sep-2020 15:13:42
Local (UTC-5)  19-Sep-2020 10:13:42
 
METAR
KBXA 
15nm E 
191455Z AUTO 05006KT 7SM OVC007 21/19 A3006 RMK AO2 P0001 60003 T02070188
KHDC 
23nm SW 
191455Z AUTO 05005KT 7SM -RA OVC007 20/19 A3004 RMK AO2 P0003
KMCB 
26nm NW 
191453Z AUTO VRB06KT 10SM CLR 21/16 A3006 RMK AO2 SLP175 T02110161 53007
TAF
KHDC 
23nm SW 
191139Z 1912/2012 07006KT P6SM VCSH SCT080 SCT090 OVC110 FM191500 05008KT P6SM VCSH OVC020 FM200000 08006KT P6SM OVC020 FM201000 06007KT P6SM OVC045
KMCB 
26nm NW 
191139Z 1912/2012 VRB04KT P6SM BKN250 FM191900 07006KT P6SM BKN045 FM200900 07006KT P6SM BKN030 FM201000 07006KT P6SM BKN015
NOTAMs
Click for the latest NOTAMs
NOTAMs are issued by the DoD/FAA and will open in a separate window not controlled by AirNav.

 

 
 

Would you like to see your business listed on this page?

 If your business provides an interesting product or service to pilots, flight crews, aircraft, or users of the Riverside Medical Center Heliport, you should consider listing it here.  To start the listing process, click on the button below
 
Add a business
 

Other Pages about Riverside Medical Center Heliport

Update a link
 
Copyright © AirNav, LLC. All rights reserved. Privacy Policy  Contact